Lid_Strength_Index
1 4 7 7 10 12 14 13 12 11 11 9 8 8 8 8 10 12 3 1 -0 0 -0 -1 -1 -1 -1 -2 -2 -2 -2 -2 -2 -1 -2 -2 -2 -2 -2 -2 -2 -2 -2 -2 -2 -2 -2 -1 -1
3 4 6 9 12 15 14 11 11 10 9 7 7 7 8 10 6 5 4 0 -0 -0 -0 -0 -1 -2 -1 -2 -2 -2 -2 -2 -2 -2 -2 -2 -2 -2 -2 -2 -2 -2 -2 -2 -2 -2 -2 -1 -1
5 6 8 11 13 14 14 11 10 8 8 8 9 6 7 8 5 4 2 0 -0 -0 -0 -0 -1 -2 -2 -2 -2 -2 -2 -2 -2 -2 -2 -2 -2 -2 -2 -2 -2 -2 -2 -2 -2 -2 -1 -1 -2
6 7 9 11 14 12 12 10 9 9 8 7 7 9 6 3 4 2 0 -0 0 0 -0 -1 -1 -2 -2 -2 -2 -2 -2 -2 -2 -2 -2 -2 -2 -2 -2 -2 -2 -2 -2 -2 -2 -2 -1 -1 -1
7 8 12 13 13 12 11 8 8 9 8 8 7 9 9 4 2 1 1 0 1 1 0 -0 -1 -2 -2 -2 -2 -2 -2 -2 -2 -2 -2 -2 -2 -2 -2 -2 -2 -2 -2 -2 -2 -1 -1 -1 -1
9 9 13 15 13 11 11 7 8 9 8 8 8 8 8 3 3 2 1 1 -0 0 -0 -0 0 -1 -1 -2 -2 -2 -2 -2 -2 -3 -3 -2 -2 -2 -2 -2 -2 -2 -2 -2 -1 -1 -1 -1 -1
10 11 13 13 13 11 11 8 9 8 9 8 6 10 8 5 3 2 1 1 0 -0 -0 -0 -0 0 0 -1 -1 -2 -2 -2 -2 -3 -3 -2 -2 -2 -2 -3 -2 -2 -2 -1 -1 -1 -1 -1 -1
10 11 12 13 13 12 9 9 8 8 8 6 5 9 9 4 2 2 2 1 1 0 -0 0 -0 0 0 0 0 -0 -1 -1 -2 -2 -2 -1 -1 -2 -2 -1 -2 -2 -2 -1 -1 -1 -1 -0 -0
9 12 14 12 12 11 9 9 8 7 7 6 6 6 5 3 3 3 4 3 1 1 0 0 0 0 0 0 1 1 0 -0 -1 -1 -0 1 1 1 0 0 -1 -2 -2 -2 -1 -1 -1 -1 -0
11 13 12 10 11 11 10 10 10 9 8 8 7 6 4 3 4 4 4 4 3 2 1 0 0 0 0 -0 0 1 0 0 0 1 1 1 2 2 1 2 0 -1 -1 -2 -1 -2 -1 -0 2
10 12 10 10 10 10 10 10 10 9 10 8 8 7 5 5 4 4 4 4 3 2 1 1 0 0 0 0 1 1 1 1 1 2 2 2 2 3 2 3 2 1 1 1 0 0 1 2 2
10 9 9 8 9 10 10 9 10 10 9 8 8 5 4 5 4 4 4 4 4 3 2 1 1 1 0 0 1 1 1 2 2 2 2 3 3 4 3 3 3 3 2 2 2 2 2 2 2
9 9 8 7 8 9 9 10 10 9 8 8 7 4 5 4 4 3 3 3 4 3 3 2 1 1 0 0 1 1 1 1 1 2 2 3 3 4 4 3 3 3 2 3 3 3 3 3 3
8 8 8 8 8 8 9 10 9 9 9 9 6 5 5 5 4 4 4 3 4 3 3 3 2 1 1 1 0 1 1 1 2 2 2 2 3 3 3 3 3 3 3 3 3 3 3 3 3
8 10 9 9 8 8 8 10 10 7 8 8 8 8 5 4 4 4 3 3 2 2 2 3 3 2 1 1 1 1 1 1 1 2 2 2 2 3 3 3 2 2 3 3 3 3 3 3 3
11 10 14 10 8 8 8 13 9 7 8 8 8 8 8 5 4 3 3 2 2 2 2 2 2 3 2 1 1 1 1 1 1 1 2 2 2 2 3 3 3 3 3 3 3 3 3 3 4
12 16 14 12 9 9 10 13 8 8 8 9 9 8 8 8 6 3 2 3 2 2 2 2 2 2 3 1 1 1 1 1 1 1 1 2 2 2 2 2 2 3 3 3 3 4 3 3 3
15 16 14 14 11 10 11 11 9 8 8 9 9 9 8 8 7 6 4 2 2 2 2 2 1 1 2 2 1 1 2 2 1 1 1 2 2 2 2 2 2 2 3 3 4 3 4 3 3
12 14 14 14 10 11 12 11 10 8 9 9 8 8 8 7 6 6 7 4 2 2 2 2 2 1 2 3 3 2 2 2 2 1 2 2 2 3 3 3 3 3 3 3 3 3 4 4 4
12 13 14 11 9 11 12 12 9 8 8 7 7 7 6 6 7 6 6 6 4 2 2 2 2 2 2 1 2 2 2 2 1 1 1 1 2 2 3 3 3 4 3 3 3 4 4 3 4
12 13 13 13 11 11 12 13 11 8 8 7 7 6 6 6 6 5 6 6 6 4 2 2 1 2 2 1 2 2 2 3 2 2 2 1 1 2 2 2 3 4 4 4 4 4 4 5 5
15 11 12 13 14 17 12 18 12 11 11 9 8 8 7 7 6 5 6 6 7 6 3 2 2 1 2 1 2 2 2 3 2 1 1 1 2 2 2 2 3 3 4 4 4 4 5 5 5
13 10 12 12 14 14 14 17 15 13 11 9 9 9 9 8 7 7 7 6 6 7 5 2 2 2 2 2 2 2 2 2 1 2 2 2 2 2 2 2 2 3 3 3 4 4 5 4 4
9 11 12 12 14 19 14 15 15 12 11 11 9 10 10 10 9 9 9 8 8 8 8 6 3 3 3 2 2 2 2 2 2 2 2 2 2 2 2 2 2 2 3 3 3 3 4 4 4
11 14 19 20 20 20 14 15 14 10 10 9 9 11 11 10 10 10 10 10 9 9 9 8 7 6 4 3 2 2 2 2 2 2 2 2 2 2 2 2 3 2 2 2 3 3 3 3 4
13 13 18 22 22 20 15 18 14 9 8 7 9 9 10 10 10 10 10 10 10 9 9 9 9 9 9 8 7 4 1 1 2 2 2 2 2 2 2 2 2 2 2 2 3 3 3 3 3
13 15 11 16 18 19 17 14 11 10 10 11 10 10 11 10 10 10 10 10 9 9 9 9 8 9 9 8 8 8 7 5 3 1 1 1 1 1 2 2 2 2 2 2 2 2 2 3 3
11 10 16 16 21 22 19 17 15 13 12 11 11 11 11 10 10 10 10 10 9 9 9 9 9 9 9 9 9 8 8 7 6 4 3 2 1 1 2 2 2 2 2 2 2 2 2 2 2
13 14 14 14 16 20 21 18 14 13 11 12 11 10 10 10 10 11 11 11 10 9 9 9 9 10 10 9 9 9 9 8 7 7 6 5 3 2 1 1 2 2 1 1 1 1 2 2 2
11 13 13 17 18 17 17 17 12 12 12 10 11 9 9 11 11 11 11 11 11 10 10 10 10 11 11 10 10 9 9 10 10 10 9 8 7 5 3 2 1 1 1 1 1 2 1 2 2